Location: Newark
(54.6833°N, 25.2833°E)
Time: 05:45:48
(UTC+00:00)

Altair - Pass Details

Date: 18 November 2019
Orbit: 1502 x 1682 km, 47.2° (Epoch: 05 December)

Event Time Altitude Azimuth Distance (km) Brightness Sun altitude
Rises 04:29:35 0° 260° (W) 4,635 - -11.9°
Exits shadow 04:32:01 - 257° (WSW) 3,859 9.1 -11.6°
Reaches altitude 10° 04:32:39 10° 256° (WSW) 3,656 9.0 -11.5°
Maximum altitude 04:41:30 55° 182° (S) 1,775 8.0 -10.3°
Drops below altitude 10° 04:50:34 10° 108° (ESE) 3,740 11.2 -9.1°
Sets 04:53:44 0° 104° (ESE) 4,747 12.4 -8.6°
